| time (UTC) | temp F | wind direction | speed MPH | gust MPH | rain 1hr in | rain 24hr in | rain mn in | humidity % | barometer mb |
| 20260505001648 | 52 | 180 | 1.0 | 3.0 | 0.00 | 0.00 | 0.00 | 72 | 1006.9 |
| 20260505000135 | 54 | 181 | 1.0 | 3.0 | 0.00 | 0.00 | 0.00 | 68 | 1006.8 |
| 20260504234528 | 55 | 175 | 2.0 | 4.0 | 0.00 | 0.00 | 0.00 | 64 | 1006.6 |
| 20260504233032 | 57 | 169 | 1.0 | 4.0 | 0.00 | 0.00 | 0.00 | 60 | 1006.4 |
| 20260504231503 | 58 | 174 | 2.0 | 4.0 | 0.00 | 0.00 | 0.00 | 58 | 1006.1 |
| 20260504230136 | 58 | 173 | 2.0 | 6.0 | 0.00 | 0.00 | 0.00 | 59 | 1006.1 |
| 20260504224637 | 59 | 184 | 3.0 | 6.0 | 0.00 | 0.00 | 0.00 | 61 | 1006.0 |
| 20260504223036 | 60 | 157 | 2.0 | 7.0 | 0.00 | 0.00 | 0.00 | 62 | 1005.9 |
| 20260504221553 | 61 | 153 | 3.0 | 9.0 | 0.00 | 0.00 | 0.00 | 60 | 1005.9 |
| 20260504220001 | 62 | 175 | 2.0 | 6.0 | 0.00 | 0.00 | 0.00 | 58 | 1005.8 |
| 20260504214534 | 64 | 176 | 2.0 | 8.0 | 0.00 | 0.00 | 0.00 | 54 | 1005.8 |
| 20260504213135 | 65 | 59 | 1.0 | 8.0 | 0.00 | 0.00 | 0.00 | 52 | 1005.6 |
| 20260504211641 | 65 | 90 | 5.0 | 9.0 | 0.00 | 0.00 | 0.00 | 55 | 1005.6 |
| 20260504210138 | 65 | 46 | 3.0 | 6.0 | 0.00 | 0.00 | 0.00 | 55 | 1005.7 |
| 20260504204641 | 65 | 225 | 1.0 | 5.0 | 0.00 | 0.00 | 0.00 | 57 | 1005.7 |
| 20260504203050 | 63 | 19 | 3.0 | 7.0 | 0.00 | 0.00 | 0.00 | 59 | 1005.7 |
| 20260504201529 | 63 | 38 | 4.0 | 8.0 | 0.00 | 0.00 | 0.00 | 55 | 1006.0 |
| 20260504200148 | 62 | 63 | 3.0 | 9.0 | 0.00 | 0.00 | 0.00 | 58 | 1005.9 |
| 20260504194502 | 63 | 22 | 4.0 | 7.0 | 0.00 | 0.00 | 0.00 | 58 | 1005.9 |
| 20260504193118 | 64 | 188 | 1.0 | 5.0 | 0.00 | 0.00 | 0.00 | 60 | 1005.9 |
| 20260504191534 | 63 | 355 | 2.0 | 5.0 | 0.00 | 0.00 | 0.00 | 61 | 1006.0 |
| 20260504190024 | 60 | 329 | 0.0 | 2.0 | 0.00 | 0.00 | 0.00 | 67 | 1006.3 |
| 20260504184634 | 57 | 185 | 0.0 | 2.0 | 0.00 | 0.00 | 0.00 | 66 | 1006.4 |
| 20260504183039 | 57 | 169 | 0.0 | 3.0 | 0.00 | 0.00 | 0.00 | 62 | 1006.3 |
| 20260504181635 | 57 | 203 | 2.0 | 5.0 | 0.00 | 0.00 | 0.00 | 61 | 1006.2 |
| 20260504180140 | 57 | 178 | 1.0 | 4.0 | 0.00 | 0.00 | 0.00 | 62 | 1006.2 |
| 20260504174610 | 58 | 226 | 2.0 | 5.0 | 0.00 | 0.00 | 0.00 | 58 | 1006.3 |
| 20260504173048 | 59 | 219 | 3.0 | 14.0 | 0.00 | 0.00 | 0.00 | 54 | 1006.0 |
| 20260504170151 | 60 | 213 | 7.0 | 14.0 | 0.00 | 0.00 | 0.00 | 53 | 1005.7 |
| 20260504160117 | 60 | 200 | 5.0 | 12.0 | 0.00 | 0.01 | 0.00 | 54 | 1006.2 |
| 20260504150147 | 58 | 197 | 6.0 | 11.0 | 0.00 | 0.03 | 0.00 | 59 | 1007.1 |
| 20260504140141 | 55 | 202 | 4.0 | 10.0 | 0.00 | 0.08 | 0.00 | 61 | 1007.9 |
| 20260504130144 | 53 | 193 | 5.0 | 9.0 | 0.00 | 0.09 | 0.00 | 63 | 1008.4 |
| 20260504120147 | 49 | 242 | 4.0 | 9.0 | 0.00 | 0.10 | 0.00 | 63 | 1008.9 |
| 20260504110141 | 44 | 200 | 2.0 | 4.0 | 0.00 | 0.10 | 0.00 | 69 | 1009.0 |
| 20260504100120 | 37 | 184 | 0.0 | 3.0 | 0.00 | 0.10 | 0.00 | 80 | 1008.7 |
| 20260504081616 | 34 | 208 | 0.0 | 0.0 | 0.00 | 0.10 | 0.00 | 78 | 1008.5 |
| 20260504080146 | 34 | 208 | 0.0 | 0.0 | 0.00 | 0.10 | 0.00 | 79 | 1008.5 |
| 20260504070141 | 36 | 291 | 0.0 | 3.0 | 0.00 | 0.10 | 0.00 | 78 | 1008.5 |
| 20260504060112 | 36 | 194 | 0.0 | 0.0 | 0.00 | 0.10 | 0.00 | 78 | 1008.3 |
| 20260504050148 | 37 | 169 | 0.0 | 2.0 | 0.00 | 0.10 | 0.00 | 74 | 1008.2 |
| 20260504044549 | 38 | 219 | 0.0 | 0.0 | 0.00 | 0.10 | 0.00 | 73 | 1008.3 |
| 20260504043146 | 38 | 260 | 0.0 | 0.0 | 0.00 | 0.10 | 0.00 | 74 | 1008.3 |
| 20260504041631 | 39 | 252 | 0.0 | 0.0 | 0.00 | 0.10 | 0.00 | 72 | 1008.2 |
| 20260504040116 | 39 | 248 | 0.0 | 0.0 | 0.00 | 0.10 | 0.00 | 72 | 1008.2 |
| 20260504034640 | 39 | 244 | 0.0 | 0.0 | 0.00 | 0.10 | 0.10 | 71 | 1008.0 |
| 20260504033113 | 40 | 256 | 0.0 | 1.0 | 0.00 | 0.10 | 0.10 | 70 | 1007.9 |
| 20260504031643 | 41 | 163 | 0.0 | 0.0 | 0.00 | 0.10 | 0.10 | 67 | 1007.9 |
| 20260504030143 | 42 | 225 | 0.0 | 1.0 | 0.00 | 0.10 | 0.10 | 67 | 1007.9 |
| 20260504024613 | 43 | 225 | 0.0 | 4.0 | 0.00 | 0.10 | 0.10 | 64 | 1007.8 |
| 20260504023141 | 43 | 250 | 0.0 | 3.0 | 0.00 | 0.10 | 0.10 | 63 | 1007.8 |
| 20260504021501 | 44 | 267 | 1.0 | 6.0 | 0.00 | 0.10 | 0.10 | 62 | 1007.8 |
| 20260504020117 | 44 | 271 | 1.0 | 5.0 | 0.00 | 0.10 | 0.10 | 61 | 1007.7 |
| 20260504014631 | 44 | 257 | 1.0 | 6.0 | 0.00 | 0.10 | 0.10 | 60 | 1007.7 |
| 20260504013138 | 44 | 295 | 1.0 | 6.0 | 0.00 | 0.10 | 0.10 | 59 | 1007.5 |
| 20260504011609 | 45 | 275 | 2.0 | 6.0 | 0.00 | 0.10 | 0.10 | 57 | 1007.3 |
| 20260504010136 | 45 | 333 | 1.0 | 5.0 | 0.00 | 0.10 | 0.10 | 55 | 1007.0 |
| 20260504004552 | 46 | 285 | 0.0 | 5.0 | 0.00 | 0.10 | 0.10 | 55 | 1006.7 |
| 20260504003035 | 46 | 19 | 0.0 | 2.0 | 0.00 | 0.10 | 0.10 | 53 | 1006.4 |